Regional Weather Roundup
Issued by NWS

Home | Current Version | Previous Version | Text Only | Print | Product List | Glossary On
Versions: 1 2 3 4 5 6 7 8 9 10 11 12 13 14 15 16 17 18 19 20 21 22 23 24 25 26 27 28 29 30 31 32 33 34 35 36 37 38 39 40 41 42 43 44 45 46 47 48 49 50
000
ASUS44 KBMX 280910
RWRAL

ALABAMA REGIONAL WEATHER ROUNDUP
NATIONAL WEATHER SERVICE BIRMINGHAM AL
400 AM CDT THU AUG 28 2014

NOTE: "FAIR" INDICATES FEW OR NO CLOUDS BELOW 12,000 FEET
WITH NO SIGNIFICANT WEATHER AND/OR OBSTRUCTIONS TO VISIBILITY.

THE REMARK "TC" DENOTES TEMPERATURE IN DEGREES CELSIUS.

ALZ001>011-014-016>018-020-281000-
NORTH ALABAMA

CITY           SKY/WX    TMP DP  RH WIND       PRES   REMARKS
MUSCLE SHOALS  CLEAR     68  64  88 CALM      30.03S FOG
HUNTSVILLE     CLEAR     71  67  87 E5        30.03S
DECATUR        CLEAR     67  65  93 N3        30.04R
HALEYVILLE     FAIR      65  65 100 CALM      30.07S
GADSDEN        CLEAR     64  61  88 CALM      30.03S
$$

ALZ012-013-022-023-030>036-040>044-281000-
WEST CENTRAL ALABAMA

CITY           SKY/WX    TMP DP  RH WIND       PRES   REMARKS
TUSCALOOSA     CLEAR     67  64  90 CALM      30.01S
$$

ALZ015-024>027-033>036-040>044-281000-
CENTRAL ALABAMA

CITY           SKY/WX    TMP DP  RH WIND       PRES   REMARKS
BIRMINGHAM     PTCLDY    68  61  78 CALM      30.04S
MONTGOMERY     CLEAR     69  65  86 CALM      30.00F
SHELBY CO ARPT CLEAR     67  62  84 CALM      30.03S
MAXWELL AFB    CLEAR     70  69  96 N1        30.00S
GREENVILLE     FAIR      66  62  87 CALM      30.00S
$$

ALZ019-021-028-029-037-038-045>048-281000-
EAST CENTRAL ALABAMA

CITY           SKY/WX    TMP DP  RH WIND       PRES   REMARKS
ANNISTON       CLEAR     65  63  93 CALM      30.03S
ALEXANDER CITY CLEAR     68  63  84 CALM      30.03S
AUBURN         CLEAR     66  57  72 CALM      30.06S
$$

ALZ051>064-281000-
SOUTHWEST ALABAMA

CITY           SKY/WX    TMP DP  RH WIND       PRES   REMARKS
MOBILE         CLEAR     73  73 100 CALM      29.99F
BROOKLEY FIELD CLEAR     75  73  93 NW3       29.99F
EVERGREEN      PTCLDY    67  64  90 CALM      30.00F
$$

ALZ049-050-065>069-281000-
SOUTHEAST ALABAMA

CITY           SKY/WX    TMP DP  RH WIND       PRES   REMARKS
DOTHAN         CLEAR     66  62  87 CALM      30.03F
OZARK          PTCLDY    67  64  89 NW2       30.00S
TROY           PTCLDY    66  62  87 CALM      30.01S
EUFAULA        FAIR      64  62  93 CALM      29.99S
$$



USA.gov is the U.S. government's official web portal to all federal, state and local government web resources and services.